EW7890 Hamilton BM current weather conditions

sailwx.info

Wind from 122

Air temperature 21.7° C
Dewpoint 20.8° C

Last reported at 2018-May-24 08:57 UTC.
Time now 2018-May-24 10:03 UTC

Location: N 32°18' W 064°46'.
View on Google Maps.

See reports from other nearby stations

  
Tides and Currents Weather Stations Pressure Air Temp Water Temp Dewpoint Dewpoint Depression Visibility Wind Speed Wind Dir Waves Ship Positions
date/time (UTC)wind fromknots sea level pressurealtimeterstation pressurevisibilityair tempwater tempwave heightnotes
2018-May-24 08:57 122 21.7
2018-May-24 08:42 134 21.7
2018-May-24 08:27 174 21.1
2018-May-24 08:12 174 21.1
2018-May-24 07:57 119 21.1
2018-May-24 07:42 264 21.1
2018-May-24 07:27 009 1 gusting 6 21.7
2018-May-24 07:12 191 21.7
2018-May-24 06:57 111 22.2
2018-May-24 06:42 140 22.8
2018-May-24 06:27 068 22.8
2018-May-24 06:12 133 23.3
2018-May-24 05:57 181 23.3
2018-May-24 05:42 179 23.3
2018-May-24 05:27 203 23.3
2018-May-24 05:12 202 23.3
2018-May-24 04:57 136 23.3
2018-May-24 04:42 156 23.3
2018-May-24 04:27 300 23.3
2018-May-24 04:12 269 23.3
2018-May-24 03:57 084 23.3
2018-May-24 03:41 276 23.3
2018-May-24 03:26 141 23.3
2018-May-24 03:11 129 23.3
2018-May-24 02:56 212 23.3
2018-May-24 02:41 131 23.3
2018-May-24 02:26 135 23.3
2018-May-24 02:11 146 23.3
2018-May-24 01:56 133 23.3
2018-May-24 01:41 270 23.3
2018-May-24 01:26 277 23.3
2018-May-24 01:11 137 23.3
2018-May-24 00:56 226 23.3
2018-May-24 00:41 150 23.3
2018-May-24 00:26 298 23.3
2018-May-24 00:11 176 23.3
2018-May-23 23:56 011 23.9
2018-May-23 23:41 155 23.9
2018-May-23 23:26 140 23.9
2018-May-23 23:11 256 24.4
2018-May-23 22:56 094 24.4
2018-May-23 22:41 260 24.4
2018-May-23 22:26 297 25.0
2018-May-23 22:11 143 25.6
2018-May-23 21:56 280 26.1
2018-May-23 21:41 152 0 gusting 3 25.6
2018-May-23 21:26 252 25.6
2018-May-23 21:11 267 0 gusting 3 25.6
2018-May-23 20:56 146 0 gusting 3 25.6
2018-May-23 20:41 252 26.1
2018-May-23 20:26 094 25.6
2018-May-23 20:11 197 0 gusting 4 25.6
2018-May-23 19:56 102 25.6
2018-May-23 19:41 228 0 gusting 4 26.1
2018-May-23 19:26 290 26.1
2018-May-23 19:11 290 26.7
2018-May-23 18:56 173 27.2
2018-May-23 18:41 180 0 gusting 5 27.2
2018-May-23 18:26 195 27.8
2018-May-23 18:11 259 28.3
2018-May-23 17:56 264 0 gusting 4 28.3
2018-May-23 17:41 229 0 gusting 7 27.8
2018-May-23 17:26 291 27.2
2018-May-23 17:11 235 0 gusting 4 27.2
2018-May-23 16:56 257 0 gusting 5 27.8
2018-May-23 16:41 255 0 gusting 3 27.8
2018-May-23 16:26 273 1 gusting 5 27.8
2018-May-23 16:11 271 0 gusting 6 27.2
2018-May-23 15:56 230 27.2
2018-May-23 15:41 245 0 gusting 6 27.8
2018-May-23 15:26 246 0 gusting 5 28.3
2018-May-23 15:11 190 27.8
2018-May-23 14:56 279 0 gusting 4 27.8
2018-May-23 14:41 352 0 gusting 3 27.2
2018-May-23 14:26 176 0 gusting 3 27.8
2018-May-23 14:10 153 27.2
2018-May-23 13:55 068 26.7
2018-May-23 13:40 283 27.2
2018-May-23 13:25 289 27.8
2018-May-23 13:10 250 0 gusting 5 27.2
2018-May-23 12:55 219 27.2
2018-May-23 12:40 309 26.7
2018-May-23 12:25 259 26.1
2018-May-23 12:10 236 26.1
2018-May-23 11:55 339 26.1
2018-May-23 11:40 103 25.6
2018-May-23 11:25 210 25.0
2018-May-23 11:10 101 24.4
2018-May-23 10:55 253 23.9
2018-May-23 10:40 150 22.8
2018-May-23 10:25 143 21.1
2018-May-23 10:10 124 20.6
2018-May-23 09:55 124 20.0
2018-May-23 09:40 124 20.0
2018-May-23 09:25 181 20.0
2018-May-23 09:10 092 20.0
2018-May-23 08:55 092 20.0
2018-May-23 08:40 092 19.4
2018-May-23 08:25 092 19.4
2018-May-23 08:10 092 19.4
2018-May-23 07:55 092 19.4
2018-May-23 07:40 092 18.9
2018-May-23 07:25 092 18.9
2018-May-23 07:10 092 18.9
2018-May-23 06:55 092 18.9
2018-May-23 06:40 092 18.9
2018-May-23 06:25 092 18.9
2018-May-23 06:10 092 18.9
2018-May-23 05:55 092 19.4
2018-May-23 05:40 092 19.4
2018-May-23 05:25 092 19.4
2018-May-23 05:09 092 19.4
2018-May-23 04:54 092 19.4
2018-May-23 04:39 092 19.4
2018-May-23 04:24 092 19.4
2018-May-23 04:09 092 19.4
2018-May-23 03:54 092 19.4
2018-May-23 03:39 092 19.4
2018-May-23 03:24 092 19.4
2018-May-23 03:09 092 19.4
2018-May-23 02:54 092 19.4
2018-May-23 02:39 092 19.4
2018-May-23 02:24 092 20.0
2018-May-23 02:09 092 20.0
2018-May-23 01:54 092 20.0
2018-May-23 01:39 092 20.6
2018-May-23 01:24 092 20.6
2018-May-23 01:09 092 20.6
2018-May-23 00:54 092 21.1
2018-May-23 00:39 110 21.1
2018-May-23 00:24 122 21.1
2018-May-23 00:09 122 21.7
2018-May-22 23:54 122 22.2
2018-May-22 23:39 122 22.2
2018-May-22 23:24 122 22.8
2018-May-22 23:09 122 23.3
2018-May-22 22:54 122 23.3
2018-May-22 22:39 274 23.9
2018-May-22 22:24 136 24.4
2018-May-22 22:09 323 24.4
2018-May-22 21:54 146 25.0
2018-May-22 21:39 115 25.0
2018-May-22 21:24 212 25.0
2018-May-22 21:09 118 25.6
2018-May-22 20:54 131 25.6
2018-May-22 20:39 347 26.1
2018-May-22 20:24 212 25.6
2018-May-22 20:09 302 25.6
2018-May-22 19:54 259 26.1
2018-May-22 19:39 160 26.7
2018-May-22 19:24 116 0 gusting 3 27.2
2018-May-22 19:09 235 26.1
2018-May-22 18:54 249 26.1
2018-May-22 18:39 149 26.7
2018-May-22 18:24 160 26.1
2018-May-22 18:09 296 26.7
2018-May-22 17:54 263 26.7
2018-May-22 17:39 163 26.7
2018-May-22 17:24 229 27.2
2018-May-22 17:09 087 27.2
2018-May-22 16:54 127 27.2
2018-May-22 16:39 139 27.2
2018-May-22 16:24 261 0 gusting 3 27.8
2018-May-22 16:09 237 27.8
2018-May-22 15:54 126 26.7
2018-May-22 15:39 153 27.2
2018-May-22 15:24 159 27.2
2018-May-22 15:09 257 28.3
2018-May-22 14:54 139 27.8
2018-May-22 14:39 238 27.8
2018-May-22 14:24 118 0 gusting 5 27.8
2018-May-22 14:09 098 0 gusting 3 27.8
2018-May-22 13:54 175 27.2
2018-May-22 13:39 347 27.2
2018-May-22 13:24 151 0 gusting 4 26.7
2018-May-22 13:09 256 27.2
2018-May-22 12:54 113 26.7
2018-May-22 12:39 297 26.1
2018-May-22 12:23 200 25.6
2018-May-22 12:08 266 26.1
2018-May-22 11:53 139 25.6
2018-May-22 11:38 319 25.0
2018-May-22 11:23 290 24.4
2018-May-22 11:08 145 23.3
2018-May-22 10:53 293 22.2
2018-May-22 10:38 123 21.1
2018-May-22 10:23 122 19.4
2018-May-22 10:08 122 18.3